Preview of NWS' New Version of Forecast
This preview is not operational and should not be used for support decisions.

Regional Weather Roundup (RWR)

Issued by Philadelphia/Mt Holly (PHI)

                            
000
ASUS41 KPHI 221612
RWRPHI

REGIONAL WEATHER ROUNDUP
NATIONAL WEATHER SERVICE MOUNT HOLLY NJ
1200 PM EDT FRI MAR 22 2019

NOTE:  "FAIR" INDICATES FEW OR NO CLOUDS BELOW 12,000 FEET WITH NO
SIGNIFICANT WEATHER AND/OR OBSTRUCTIONS TO VISIBILITY.

 * = STATION DOES NOT REPORT PRECIPITATION (E.G. RAIN, SNOW, ETC.) 
        OR FOG.

NJZ015>026-221700-
SOUTHERN NEW JERSEY
  
CITY           SKY/WX    TMP DP  RH WIND       PRES   REMARKS
POMONA         PTSUNNY   46  38  73 NW28G41   29.46R                  
WILDWOOD*      PTSUNNY   47  35  63 NW21G31   29.54R                  
MILLVILLE      CLOUDY    47  34  60 NW16G36   29.52R                  
MOUNT HOLLY    CLOUDY    45  34  65 NW23G37   29.48R                  
TRENTON        PTSUNNY   43  37  79 NW17G28   29.45R                  

$$
NJZ001>014-221700-
NORTHERN NEW JERSEY
  
CITY           SKY/WX    TMP DP  RH WIND       PRES   REMARKS
SUSSEX         CLOUDY    42  35  76 NW13G23   29.39S                  
ANDOVER*         N/A     41  32  70 NW9G23    29.41R                  
MORRISTOWN     DRIZZLE   43  39  87 NW13G23   29.40S                  
NEWARK         CLOUDY    44  37  76 NW21G31   29.37S                  
TETERBORO      CLOUDY    44  35  70 NW22G36   29.35S                  
CALDWELL       CLOUDY    42  37  82 NW10G25   29.38S                  
SOMERVILLE     LGT RAIN  43  36  76 W10G26    29.41R                  
ALLAIRE*       LGT RAIN  41  39  93 W17G25    29.40R                  
TOMS RIVER*    LGT RAIN  44  40  85 NW22G31   29.43R                  

$$
PAZ043-044-047-054-055-060>062-066>071-221700-
EASTERN PENNSYLVANIA
  
CITY           SKY/WX    TMP DP  RH WIND       PRES   REMARKS
PHILADELPHIA   PTSUNNY   47  32  56 W22G29    29.51R                  
NORTH PHILA    PTSUNNY   49  36  61 NW18G29   29.48F                  
BLUE BELL*     CLOUDY    43  32  65 NW15G26   29.51R                  
DOYLESTOWN     CLOUDY    43  35  73 W16G31    29.46S                  
QUAKERTOWN*    PTSUNNY   43  32  65 W15G24    29.49                   
PERKASIE*      CLOUDY    41  32  70 NW14G30   29.48S                  
POTTSTOWN      PTSUNNY   44  31  60 NW20G32   29.52R                  
LANCASTER      PTSUNNY   48  33  56 NW25G38   29.55F                  
COATESVILLE    CLOUDY    43  34  70 NW25G32   29.53F                  
READING        CLOUDY    44  33  65 W23G32    29.52S                  
ALLENTOWN      CLOUDY    44  31  60 NW20G30   29.48R                  
MOUNT POCONO   FLURRIES  33  30  88 NW24G38   29.39R WCI  20          
HAZLETON       CLOUDY    36  28  75 W14G22    29.50S WCI  27          
LEHIGHTON      CLOUDY    43  32  65 W7G17     29.50S                  
WILKES BARRE   CLOUDY    39  31  72 NW16G26   29.47F WCI  30          

$$
DEZALL-MDZ008-012-015-019-020-221700-
DELAWARE AND EASTERN MARYLAND
  
CITY           SKY/WX    TMP DP  RH WIND       PRES   REMARKS
WILMINGTON     CLOUDY    45  31  58 NW29G43   29.55R                  
DOVER          CLOUDY    47  33  59 W20G28    29.55R                  
GEORGETOWN     CLOUDY    50  32  50 NW12G25   29.58R                  
EASTON         PTSUNNY   50  34  53 W26G35    29.65S                  
PATUXENT       FAIR      51  32  48 NW35G45   29.64S                  
OCEAN CITY     CLOUDY    48  34  58 NW16G33   29.58R                  
WALLOPS ISLAND PTSUNNY   52  32  46 NW25G41   29.62R                  
CAMBRIDGE      PTSUNNY   48  34  57 NW20G31   29.63S                  
SALISBURY      CLOUDY    48  34  58 NW18G32   29.60R                  

$$
PAZ001-021-NYZ056-072-MDZ011-DCZ001-221700-
OTHER NEARBY LOCATIONS
  
CITY           SKY/WX    TMP DP  RH WIND       PRES   REMARKS
HARRISBURG     CLOUDY    45  30  55 NW31G38   29.58S                  
STATE COLLEGE  PTSUNNY   39  32  75 W14G20    29.60F WCI  31          
WILLIAMSPORT   CLOUDY    43  29  57 NW12      29.56F                  
BINGHAMTON     CLOUDY    35  29  78 NW20G29   29.44F WCI  24          
NEW YORK CITY  CLOUDY    42  37  82 NW9G21    29.38R                  
BALTIMORE      PTSUNNY   48  33  56 W20G32    29.62R                  
WASHINGTON DC  PTSUNNY   48  30  49 NW18G35   29.67S                  

$$